Location: Bittkow
(50.3000°N, 19.0000°E)
Time: 17:30:03
(UTC+00:00)

ERBS - Pass Details

Date: 19 September 2020
Orbit: 411 x 419 km, 57.0° (Epoch: 30 October)

Event Time Altitude Azimuth Distance (km) Brightness Sun altitude
Exits shadow 03:09:52 10° 200° (SSW) 1,474 4.7 -12.8°
Maximum altitude 03:12:49 32° 136° (SE) 755 3.8 -12.3°
Drops below altitude 10° 03:15:51 10° 72° (ENE) 1,512 6.6 -11.9°
Sets 03:18:05 0° 62° (ENE) 2,381 7.9 -11.5°
